User: anonymous   Login
Location: Newark
(49.1000°N, 0.4667°W)
Time: 22:28:27
(UTC+00:00)
Language:

XW-2B - Orbit

View from above orbital plane
View from above orbital plane
View from above satellite
View from above satellite

Ground track
Ground track

The orbit data is extracted from the following two-line orbital elements,

1 40911U 15049N   21210.51310331  .00001328  00000-0  70307-4 0  9992
2 40911  97.4844 212.8259 0015059  44.0125  73.3844 15.17087500323863
Epoch (UTC): 29 July 2021 12:18:52
Eccentricity: 0.0015059
inclination: 97.4844°
perigee height: 504 km
apogee height: 525 km
right ascension of ascending node: 212.8259°
argument of perigee: 44.0125°
revolutions per day: 15.17087500
mean anomaly at epoch: 73.3844°
orbit number at epoch: 32386

The dashed part of the orbit path shows where the satellite is in the earth's shadow,  

DLR